Fort Polk, LA

6:29 PM CDT on October 13, 2019 (GMT -0500)
Fort Polk

Weather History for KAQV - August, 2019

Change the Weather History Date:

Thursday, August 8, 2019

  Actual Average (WUND) Record (WUND)
Temperature  
Mean Temperature 87 °F -  
Max Temperature 96 °F - - (-1)
Min Temperature 78 °F - - (-1)
Cooling Degree Days 22    
Growing Degree Days 37 (Base 50)    
Moisture  
Dew Point 74 °F    
Average Humidity 73    
Maximum Humidity 93    
Minimum Humidity 44    
Precipitation  
Precipitation 0.00 in - - ()
Sea Level Pressure  
Sea Level Pressure 29.94 in    
Wind  
Wind Speed 3 mph (SSW)    
Max Wind Speed 7 mph    
Max Gust Speed -    
Visibility 10 miles    
Events      
Averages and records for this station are not official NWS values.
T = Trace of Precipitation, MM = Missing Value Source: NWS Daily Summary

Daily Weather History Graph

Daily Weather History Graph

Search for Another Location

Airport or City:

Astronomy

Aug. 08, 2019 Rise Set
Actual Time 6:34 AM CDT 8:03 PM CDT
Civil Twilight 6:08 AM CDT 8:29 PM CDT
Nautical Twilight 5:36 AM CDT 9:00 PM CDT
Astronomical Twilight 5:04 AM CDT 9:32 PM CDT
Moon 2:39 PM CDT (8/8) 12:54 AM CDT (8/8)
Length of Visible Light 14h 21m
Length of Day
13h 29m
First Quarter, 60% of the Moon is Illuminated
Aug 8
First Quarter
Aug 15
Full
Aug 23
Last Quarter
Aug 30
New
Sep 5
First Quarter

Hourly Weather History & Observations

Time (CDT) Temp. Heat Index Dew Point Humidity Pressure Visibility Wind Dir Wind Speed Gust Speed Precip Events Conditions
12:56 AM 80.1 °F 85.1 °F 75.0 °F 85% 29.91 in 10.0 mi Variable 3.5 mph - N/A   Clear
1:56 AM 79.0 °F - 75.0 °F 88% 29.91 in 10.0 mi Variable 3.5 mph - N/A   Clear
2:56 AM 78.1 °F - 75.0 °F 90% 29.91 in 10.0 mi Calm Calm - N/A   Clear
3:56 AM 78.1 °F - 75.0 °F 90% 29.91 in 10.0 mi Calm Calm - N/A   Clear
4:56 AM 78.1 °F - 75.0 °F 90% 29.91 in 10.0 mi SW 3.5 mph - N/A   Clear
5:56 AM 78.1 °F - 75.0 °F 90% 29.93 in 8.0 mi Variable 3.5 mph - N/A   Clear
6:56 AM 78.1 °F - 75.0 °F 90% 29.95 in 6.0 mi Variable 3.5 mph - N/A   Clear
7:15 AM 78.1 °F - 75.9 °F 93% 29.96 in 8.0 mi Variable 4.6 mph - N/A   Partly Cloudy
7:56 AM 80.1 °F 85.4 °F 75.9 °F 87% 29.96 in 10.0 mi Variable 3.5 mph - N/A   Partly Cloudy
8:56 AM 82.9 °F 91.8 °F 77.0 °F 82% 29.97 in 10.0 mi Variable 6.9 mph - N/A   Mostly Cloudy
9:48 AM 86.0 °F 96.0 °F 75.9 °F 72% 29.99 in 10.0 mi Variable 5.8 mph - N/A   Mostly Cloudy
9:56 AM 84.9 °F 94.1 °F 75.9 °F 74% 29.98 in 10.0 mi Variable 5.8 mph - N/A   Mostly Cloudy
10:48 AM 87.1 °F 96.3 °F 75.0 °F 67% 29.99 in 10.0 mi Variable 5.8 mph - N/A   Partly Cloudy
10:56 AM 86.0 °F 95.1 °F 75.0 °F 70% 29.98 in 10.0 mi Variable 3.5 mph - N/A   Scattered Clouds
11:56 AM 90.0 °F 99.0 °F 73.9 °F 59% 29.97 in 10.0 mi Variable 4.6 mph - N/A   Mostly Cloudy
12:56 PM 93.0 °F 100.7 °F 72.0 °F 50% 29.96 in 10.0 mi Variable 4.6 mph - N/A   Partly Cloudy
1:56 PM 93.9 °F 103.4 °F 73.0 °F 51% 29.94 in 10.0 mi Variable 3.5 mph - N/A   Mostly Cloudy
2:56 PM 93.0 °F 99.0 °F 70.0 °F 47% 29.93 in 10.0 mi Variable 5.8 mph - N/A   Mostly Cloudy
3:56 PM 96.1 °F 103.5 °F 71.1 °F 44% 29.91 in 10.0 mi Variable 3.5 mph - N/A   Partly Cloudy
5:56 PM 95.0 °F 101.3 °F 70.0 °F 44% 29.90 in 10.0 mi Variable 4.6 mph - N/A   Clear
6:56 PM 91.9 °F 97.4 °F 70.0 °F 48% 29.90 in 10.0 mi South 4.6 mph - N/A   Clear
7:56 PM 84.0 °F 91.2 °F 73.9 °F 72% 29.91 in 10.0 mi Calm Calm - N/A   Clear
9:56 PM 82.0 °F 87.4 °F 73.0 °F 74% 29.91 in 10.0 mi South 4.6 mph - N/A   Clear
10:56 PM 80.1 °F 84.5 °F 73.9 °F 81% 29.92 in 10.0 mi Calm Calm - N/A   Clear
11:56 PM 80.1 °F 85.1 °F 75.0 °F 85% 29.92 in 10.0 mi Variable 3.5 mph - N/A   Clear